User: anonymous   Login
Location: Blankensee
(53.5126°N, 14.3055°E)
Time: 18:02:26
(UTC+00:00)
Language:

Cosmos 1777 Rocket - Orbit

View from above orbital plane
View from above orbital plane
View from above satellite
View from above satellite

Ground track
Ground track

The orbit data is extracted from the following two-line orbital elements,

1 16953U 86070B   20298.39304973  .00000009  00000-0  11737-4 0  9996
2 16953  74.0124 178.7133 0011194 109.2615 250.9750 14.37395681788080
Epoch (UTC): 24 October 2020 09:25:59
Eccentricity: 0.0011194
inclination: 74.0124°
perigee height: 759 km
apogee height: 775 km
right ascension of ascending node: 178.7133°
argument of perigee: 109.2615°
revolutions per day: 14.37395681
mean anomaly at epoch: 250.9750°
orbit number at epoch: 78808

The dashed part of the orbit path shows where the satellite is in the earth's shadow,  

DLR